Tracking 25710 objects as of 4-Jul-2022
HD Live streaming from Space Station
objects crossing your sky now

STARLINK-1928

Track STARLINK-1928 now!
10-day predictions
STARLINK-1928 is classified as:


NORAD ID: 46758
Int'l Code: 2020-074V
Perigee: 553.2 km
Apogee: 555.6 km
Inclination: 53.1 °
Period: 95.6 minutes
Semi major axis: 6925 km
RCS: Unknown
Launch date: October 24, 2020
Source: United States (US)
Launch site: AIR FORCE EASTERN TEST RANGE (AFETR)
aabbcc
Your satellite tracking list
Your tracking list is empty




NASA's NSSDC Master Catalog

Two Line Element Set (TLE):
1 46758U 20074V   22185.53689074 -.00001879  00000-0 -10734-3 0  9998
2 46758  53.0532 240.7487 0001721  47.1384 312.9749 15.06379077 94036
Source of the keplerian elements: AFSPC